Owensboro, KY

9:50 PM CDT on August 31, 2016 (GMT -0500)
Owensboro-Daviess County

Weather History for KOWB - March, 2014

Change the Weather History Date:

Tuesday, March 18, 2014

  Actual Average Record
Temperature  
Mean Temperature 42 °F -  
Max Temperature 55 °F 57 °F 81 °F (1982)
Min Temperature 29 °F 37 °F 12 °F (1941)
Degree Days  
Heating Degree Days 23    
Moisture  
Dew Point 39 °F    
Average Humidity 90    
Maximum Humidity 100    
Minimum Humidity 69    
Precipitation  
Precipitation 0.00 in - - ()
Sea Level Pressure  
Sea Level Pressure 29.88 in    
Wind  
Wind Speed 7 mph (SSE)    
Max Wind Speed 17 mph    
Max Gust Speed 20 mph    
Visibility 9 miles    
Events      
Averages and records for this station are not official NWS values.
T = Trace of Precipitation, MM = Missing Value Source: NWS Daily Summary

Daily Weather History Graph

Daily Weather History Graph

Search for Another Location

Airport or City:

Trip Planner

Search our weather history database for the weather conditions in past years. The results will help you decide how hot, cold, wet, or windy it might be!

Date:

Astronomy

Mar. 18, 2014 Rise Set
Actual Time 6:55 AM CDT 6:58 PM CDT
Civil Twilight 6:29 AM CDT 7:24 PM CDT
Nautical Twilight 5:58 AM CDT 7:55 PM CDT
Astronomical Twilight 5:27 AM CDT 8:26 PM CDT
Moon 9:12 PM CDT (3/18) 7:46 AM CDT (3/18)
Length of Visible Light 12h 55m
Length of Day
12h 03m
Waning Gibbous, 96% of the Moon is Illuminated
Mar 18
Waning Gibbous
Mar 23
Last Quarter
Mar 30
New
Apr 7
First Quarter
Apr 15
Full

Hourly Weather History & Observations

Time (CDT) Temp. Windchill Dew Point Humidity Pressure Visibility Wind Dir Wind Speed Gust Speed Precip Events Conditions
12:56 AM 31.1 °F 25.4 °F 30.0 °F 96% 29.88 in 10.0 mi ESE 5.8 mph - N/A   Clear
1:56 AM 32.0 °F - 30.0 °F 92% 29.89 in 10.0 mi Calm Calm - N/A   Clear
2:56 AM 30.0 °F 26.5 °F 30.0 °F 100% 29.88 in 10.0 mi ESE 3.5 mph - N/A   Clear
3:56 AM 30.0 °F 25.2 °F 30.0 °F 100% 29.87 in 10.0 mi ESE 4.6 mph - N/A   Clear
4:56 AM 29.1 °F - 29.1 °F 100% 29.89 in 10.0 mi Calm Calm - N/A   Mostly Cloudy
5:56 AM 31.1 °F - 31.1 °F 100% 29.90 in 7.0 mi Calm Calm - N/A   Overcast
6:56 AM 32.9 °F - 32.9 °F 100% 29.90 in 6.0 mi Calm Calm - N/A   Overcast
7:40 AM 35.6 °F 31.7 °F 35.6 °F 100% 29.89 in 5.0 mi SE 4.6 mph - N/A   Overcast
7:56 AM 34.9 °F 29.0 °F 34.9 °F 100% 29.90 in 5.0 mi ESE 6.9 mph - N/A   Overcast
8:56 AM 36.0 °F 29.0 °F 36.0 °F 100% 29.93 in 6.0 mi SE 9.2 mph - N/A   Overcast
9:56 AM 36.9 °F 29.6 °F 36.9 °F 100% 29.96 in 7.0 mi SSE 10.4 mph - N/A   Overcast
10:56 AM 37.9 °F 30.5 °F 37.9 °F 100% 29.97 in 7.0 mi South 11.5 mph 19.6 mph N/A   Overcast
11:33 AM 39.2 °F 32.0 °F 37.4 °F 93% 29.96 in 8.0 mi South 11.5 mph 19.6 mph N/A   Overcast
11:56 AM 39.9 °F 32.5 °F 37.9 °F 93% 29.96 in 10.0 mi South 12.7 mph - N/A   Overcast
12:56 PM 45.0 °F 39.7 °F 39.9 °F 82% 29.95 in 10.0 mi South 10.4 mph - N/A   Overcast
1:56 PM 47.8 °F - 43.0 °F 83% 29.91 in 10.0 mi South 15.0 mph - N/A   Overcast
2:56 PM 50.9 °F - 43.9 °F 77% 29.88 in 10.0 mi South 12.7 mph - N/A   Overcast
3:56 PM 55.9 °F - 45.9 °F 69% 29.85 in 10.0 mi SSE 15.0 mph - N/A   Overcast
4:56 PM 54.9 °F - 45.9 °F 72% 29.81 in 10.0 mi SSE 17.3 mph - N/A   Mostly Cloudy
5:56 PM 54.9 °F - 45.9 °F 72% 29.79 in 10.0 mi SSE 17.3 mph - N/A   Mostly Cloudy
6:56 PM 52.0 °F - 45.0 °F 77% 29.77 in 10.0 mi SSE 13.8 mph - N/A   Scattered Clouds
7:56 PM 50.0 °F - 45.0 °F 83% 29.77 in 10.0 mi SSE 13.8 mph - N/A   Clear
8:56 PM 48.9 °F - 45.0 °F 86% 29.80 in 10.0 mi South 12.7 mph - N/A   Clear
9:56 PM 46.9 °F - 43.9 °F 89% 29.83 in 10.0 mi South 11.5 mph - N/A   Clear
10:56 PM 46.9 °F - 43.9 °F 89% 29.85 in 10.0 mi South 12.7 mph - N/A   Clear
11:29 PM 46.4 °F 40.7 °F 44.6 °F 93% 29.86 in 10.0 mi SSW 12.7 mph - N/A   Mostly Cloudy
11:56 PM 47.8 °F - 45.0 °F 90% 29.87 in 10.0 mi South 15.0 mph - N/A   Overcast